Regional Weather Roundup
Issued by NWS

Home | Current Version | Previous Version | Graphics & Text | Print | Product List | Glossary On
Versions: 1 2 3 4 5 6 7 8 9 10 11 12 13 14 15 16 17 18 19 20 21 22 23 24 25 26 27 28 29 30 31 32 33 34 35 36 37 38 39 40 41 42 43 44 45 46 47 48 49 50
000
ASUS44 KMEG 300210
RWRTN
TENNESSEE HOURLY STATE WEATHER ROUNDUP
NATIONAL WEATHER SERVICE MEMPHIS TN
800 PM CST THU JAN 29 2015

TNZ002-004-019-021-049-052-054-088>092-300300-
WEST TENNESSEE

CITY           SKY/WX    TMP DP  RH WIND       PRES   REMARKS
MEMPHIS INTL   CLOUDY    46  31  55 N12       30.36R
NWS MEMPHIS      N/A     44 N/A N/A MISG        N/A
JACKSON        CLOUDY    42  33  70 N13       30.35R
DYERSBURG      CLOUDY    43  23  45 NW10      30.38R
UNION CITY     CLOUDY    39  30  70 NW10      30.34R WCI  32
PARIS          CLOUDY    39  28  65 NW7       30.32R WCI  34
LEXINGTON      CLOUDY    43  28  56 NW13      30.30R
SAVANNAH       CLOUDY    43  30  61 N12G26    30.32R
$$

TNZ008-025-027-028-033-062-065-066-300300-
NORTH MIDDLE TENNESSEE

CITY           SKY/WX    TMP DP  RH WIND       PRES   REMARKS
NASHVILLE      CLOUDY    42  31  64 NW14G20   30.28R
CLARKSVILLE    CLOUDY    40  33  76 NW14      30.30R WCI  32
SMYRNA         CLOUDY    42  32  68 N18       30.28R
COOKEVILLE     CLOUDY    41  34  75 NW8       30.21R
CROSSVILLE     CLOUDY    39  33  79 NW20G28   30.16R WCI  29
$$

TNZ061-075-076-078-094-096-097-300300-
SOUTH MIDDLE TENNESSEE

CITY           SKY/WX    TMP DP  RH WIND       PRES   REMARKS
FAYETTEVILLE   PTCLDY    45  34  65 MISG      30.20R
TULLAHOMA      CLOUDY    41  32  70 N17       30.22R
WINCHESTER     CLOUDY    45  37  76 N13       30.21R
MCMINNVILLE    CLOUDY    41  36  81 NW15      30.22R
COLUMBIA       CLOUDY    43  36  75 NW10      30.26R
SHELBYVILLE    CLOUDY    43  34  70 NW18      30.26R
$$

TNZ017-018-042-046-047-300300-
NORTHEAST TENNESSEE

CITY           SKY/WX    TMP DP  RH WIND       PRES   REMARKS
TRI CITIES     CLOUDY    45  36  70 CALM      30.02S
ELIZABETHTON   CLOUDY    46  34  61 W5        30.02S
$$

TNZ012-013-036-069-073-074-300300-
CENTRAL EAST TENNESSEE

CITY           SKY/WX    TMP DP  RH WIND       PRES   REMARKS
KNOXVILLE      CLOUDY    53  35  50 SW22      30.04S
OAK RIDGE      CLOUDY    53  38  56 VRB7      30.09R
GATLINBURG     CLOUDY    54  36  50 SW14      30.03S
MORRISTOWN     CLOUDY    52  37  58 W9        30.04R
$$

TNZ083-085-099-300300-
SOUTHEAST TENNESSEE

CITY           SKY/WX    TMP DP  RH WIND       PRES   REMARKS
CHATTANOOGA    CLOUDY    56  41  57 VRB5      30.10R
$$

SKY/WX REPORTED AS FAIR MEANS FEW OR NO CLOUDS BELOW
12 THOUSAND FEET.




USA.gov is the U.S. government's official web portal to all federal, state and local government web resources and services.